Vertical_Velocity
-2 -1 -3 -2 -7 -6 -4 -2 -3 -1 -0 -1 -0 -2 -2 -0 1 -0 -1 -1 1 5 0 2 2 -1 -1 1 -5 5 -1 2 -1 -1 4 1 -1 -2 1 2 -3 -6 -2 -0 -1 -4 4
1 -0 2 2 2 3 1 -1 3 12 -0 2 0 0 -1 -3 2 2 -0 2 2 2 3 3 2 0 -3 3 2 -4 -2 -1 1 -1 3 -1 1 -2 1 0 -2 1 -8 0 1 -1 4
-1 -0 0 -0 -1 -3 -2 -1 -9 -12 -8 12 6 4 5 -0 -1 -0 4 0 2 3 3 1 -0 -1 -3 -4 12 -4 1 2 2 3 3 0 -1 -2 1 2 -5 6 15 -6 -2 8 -3
0 0 -2 -0 -3 -1 -1 -2 -1 -4 -6 -5 -12 1 -4 -1 1 2 3 3 2 1 2 4 -1 -2 1 2 4 -2 2 1 2 2 1 -10 5 -2 -0 2 3 4 -4 -4 14 -2 5
1 1 0 -0 -1 1 -2 -3 -5 -2 -1 -10 4 8 -2 6 -2 -0 1 3 5 4 4 3 -2 2 -7 2 4 -1 1 2 2 1 2 1 -0 1 -1 5 -2 -4 9 -2 -9 -0 -4
-2 -2 0 -4 -4 -0 -3 -4 -1 -3 -4 5 -1 -2 2 -1 -0 1 -4 3 8 12 1 8 -6 -1 0 2 1 3 1 1 3 -1 2 -1 -4 -3 -0 -0 13 -2 -4 -5 -2 -6 0
3 2 -0 3 -0 -4 -5 1 1 -1 3 -2 2 -0 -1 -0 -0 2 9 13 12 29 -10 6 23 -4 20 19 1 2 1 -1 0 -2 -2 -3 -5 12 1 -8 -2 -1 2 5 1 -6 3
-2 2 1 -1 4 2 8 4 0 1 -0 4 1 0 -3 -2 -2 2 6 13 7 17 11 3 -1 -7 6 -4 0 -2 -3 -1 2 3 1 -2 12 -5 -3 -2 -0 1 1 3 -0 -2 -13
-1 -0 -1 3 0 -1 -1 -0 -1 2 4 2 1 0 -1 19 1 -2 2 6 10 13 1 3 5 1 -2 -3 2 3 -1 1 5 -4 6 2 -2 -1 -1 -1 2 -3 -1 -1 2 -3 -0
0 3 1 0 -4 1 0 -1 -2 -0 -1 -0 1 2 1 -2 4 1 4 -1 24 15 7 -1 -2 -1 -3 -5 5 2 -3 -2 -3 3 -2 1 6 -0 2 2 -3 -1 -2 4 0 -1 -1
-2 -0 -1 -1 0 1 1 -3 -1 -5 -2 -4 -2 -2 1 -7 2 8 0 8 23 18 7 10 -2 5 1 -9 14 1 -2 4 5 -0 -3 10 2 1 0 -3 2 -1 7 0 0 -4 -8
1 -2 1 -1 1 -2 1 -4 -4 -3 -1 -3 -2 -2 -1 -3 1 -4 1 2 12 9 2 -0 -4 -2 -5 -0 3 -2 -2 3 3 -2 2 1 8 1 -3 -2 -0 2 1 -0 -3 -4 -15
0 0 -0 -2 0 -3 -1 -6 -0 -1 -2 -1 -0 -1 -1 1 -1 1 -4 11 2 -6 10 -0 -1 1 2 3 5 -1 7 2 2 4 5 -3 5 -3 -0 -1 -1 0 1 -3 -12 -8 -3
-1 2 -1 -0 -3 -3 -4 -6 -3 1 1 -1 0 0 -0 0 3 3 -8 12 0 12 6 0 -0 2 -1 0 -2 -0 0 -3 0 -4 3 0 -4 0 -2 -1 1 -2 3 -5 -9 -9 -1
-2 1 -2 1 -5 0 2 1 0 1 1 2 0 1 4 -2 3 -5 -6 9 14 0 15 4 -4 -0 -2 -6 4 -2 -1 2 1 0 2 -3 3 -3 -2 1 -1 10 2 0 -5 -1 -20
-2 1 -3 1 -3 0 1 -0 1 -1 3 -5 2 -4 1 -1 2 -4 -3 9 9 8 0 -1 4 1 0 -4 -0 -2 1 4 3 3 -2 5 -3 -1 2 0 -3 -1 4 -4 -4 -12 -12
-3 3 -3 -1 -2 2 1 1 -3 -4 -3 -4 -3 2 -3 -0 2 -9 0 3 4 2 -0 0 -1 -0 3 5 4 2 2 4 -1 -0 -0 -2 -1 3 -0 -2 1 -1 -5 1 -5 5 -14
-4 2 -3 -0 -2 -0 -0 0 -2 -3 -3 -0 1 -1 -8 6 2 8 -1 1 15 -3 -2 -1 -0 -0 -1 1 -2 -1 -1 2 0 -1 -0 -3 1 3 -3 0 -4 -4 1 -2 -1 -2 -3
-4 2 -2 -2 -4 -3 -2 -1 -0 -2 0 -4 3 -2 -1 -0 -1 3 5 6 0 3 4 -0 1 1 1 1 -0 -5 1 -0 -1 -2 -0 1 3 1 -2 -4 1 -1 -0 -0 -1 -3 21
-1 -0 -1 -2 -2 -1 -3 -2 2 -1 -1 -2 2 -9 -0 0 12 2 1 4 2 0 -2 -2 -0 -2 -0 0 -1 1 -0 2 -1 1 3 -2 6 -3 -4 -2 -2 3 3 -2 -5 -4 -1
-2 -3 2 -3 -3 0 -3 -1 -1 -5 -3 -3 1 4 -2 -4 5 6 17 14 1 -1 1 1 1 -2 -2 -1 -2 -1 1 1 -0 -0 -1 -1 -2 -0 0 -4 1 -3 -2 -2 -6 -1 -11
0 -1 1 -0 -1 -1 0 -1 -1 -2 -3 -7 8 -11 0 -3 -8 4 1 -2 -0 1 -1 -2 -3 -1 -1 -0 -0 -1 1 -0 1 -0 -2 -1 -3 2 -3 4 -0 1 -1 -3 0 -0 0
-2 0 -2 -0 -4 1 -4 0 -6 -4 -3 -15 1 -7 -0 -2 -1 -1 -3 -4 -2 -4 -2 -2 -2 -3 -1 -2 -1 -1 1 -2 2 -2 -2 -1 -1 4 -4 -2 1 -0 -3 -1 -1 -1 -0
-2 -0 -1 -2 -2 1 -2 -0 -1 -9 -4 -2 -1 -4 -3 -1 -2 -4 -3 -3 -4 -1 -1 -1 -3 -1 -2 0 -1 -0 -1 -2 -0 -2 -1 -0 1 4 -3 0 -1 0 0 -1 -0 1 3
-2 0 -0 0 -3 3 -4 -5 -4 -1 -13 -3 -3 1 1 1 -2 1 1 1 -1 -3 -3 -2 1 -1 -0 -0 -0 0 -0 -1 -1 -1 -1 -0 2 -1 1 0 1 0 -1 -1 1 0 -1
-2 -1 2 1 -3 2 2 -3 -4 -2 -4 -11 -7 -1 -3 -4 3 2 4 2 -2 -2 -1 -0 0 1 1 -1 -3 -1 -2 -1 -3 -2 0 0 -2 0 0 0 1 0 -0 1 -0 -0 -1
-4 -3 2 1 -2 3 3 1 -7 -3 2 -0 -1 -1 -1 0 -5 -5 -7 -5 -5 -1 -1 -0 -0 -1 0 1 1 -1 -1 -1 -2 -1 -0 -0 -1 0 -1 1 0 -2 -1 1 -1 0 -1
-2 -3 -1 1 1 2 3 3 0 -8 1 -1 -3 -1 0 0 -0 0 -1 -0 0 -1 -0 -1 0 0 2 0 -0 -2 -1 1 2 1 -2 -2 1 -1 -1 -0 -0 -1 1 -0 1 -2 -1
-2 -3 0 -1 -0 2 5 -0 4 1 1 1 -0 -4 2 0 4 0 0 -1 -3 1 -1 0 -1 -0 1 -1 -0 1 -1 1 -2 -1 -2 -3 1 -0 -1 1 1 2 0 -1 -0 0 0
Height
5713 5705 5698 5690 5683 5676 5669 5662 5656 5649 5642 5638 5636 5633 5630 5628 5627 5628 5629 5630 5631 5634 5636 5639 5643 5648 5653 5660 5666 5672 5677 5683 5689 5693 5700 5705 5710 5715 5721 5726 5731 5735 5738 5744 5746 5748 5755
5706 5699 5692 5686 5678 5670 5661 5654 5647 5638 5630 5625 5621 5617 5616 5614 5614 5615 5616 5619 5622 5624 5628 5630 5634 5639 5645 5652 5659 5663 5668 5674 5680 5685 5691 5696 5701 5707 5712 5717 5722 5727 5731 5736 5740 5743 5747
5700 5691 5684 5676 5668 5659 5651 5642 5634 5626 5618 5610 5605 5602 5599 5598 5598 5599 5602 5606 5611 5614 5618 5622 5625 5631 5637 5643 5652 5656 5662 5667 5672 5678 5683 5688 5694 5700 5705 5710 5715 5720 5726 5729 5734 5737 5739
5694 5685 5675 5666 5656 5645 5636 5626 5616 5606 5597 5588 5581 5577 5577 5576 5577 5580 5585 5591 5598 5603 5607 5612 5617 5622 5630 5637 5643 5649 5655 5659 5664 5669 5675 5679 5687 5692 5698 5704 5708 5713 5716 5722 5727 5729 5731
5686 5677 5667 5657 5645 5633 5621 5609 5597 5586 5575 5565 5550 5540 5534 5537 5543 5551 5561 5572 5583 5591 5597 5603 5609 5615 5622 5629 5637 5643 5648 5652 5657 5663 5669 5674 5680 5686 5692 5696 5700 5704 5709 5714 5716 5721 5723
5679 5668 5658 5645 5633 5621 5607 5591 5576 5561 5546 5528 5518 5511 5506 5505 5508 5516 5530 5551 5567 5579 5585 5593 5600 5608 5618 5624 5630 5636 5641 5646 5652 5657 5663 5668 5674 5680 5685 5689 5695 5698 5700 5703 5708 5712 5717
5671 5661 5649 5636 5621 5607 5591 5573 5556 5538 5518 5508 5501 5497 5495 5493 5493 5497 5511 5531 5553 5569 5573 5585 5596 5601 5611 5618 5624 5630 5636 5641 5646 5652 5657 5663 5669 5676 5678 5683 5686 5689 5694 5699 5702 5705 5710
5664 5653 5641 5626 5613 5597 5579 5559 5539 5517 5504 5496 5493 5493 5492 5491 5489 5488 5499 5517 5537 5554 5565 5576 5585 5594 5604 5611 5618 5625 5632 5638 5642 5647 5653 5659 5665 5668 5674 5677 5682 5686 5690 5693 5696 5698 5701
5658 5646 5633 5618 5602 5586 5566 5544 5522 5504 5493 5489 5489 5490 5489 5488 5488 5486 5493 5510 5528 5542 5557 5569 5580 5588 5597 5605 5613 5620 5627 5632 5638 5643 5650 5654 5660 5664 5669 5674 5678 5681 5684 5687 5691 5692 5696
5653 5640 5626 5610 5593 5575 5553 5531 5510 5496 5488 5484 5486 5488 5488 5487 5488 5485 5493 5505 5523 5537 5552 5565 5572 5583 5592 5600 5609 5616 5622 5629 5635 5641 5646 5650 5656 5661 5666 5670 5674 5677 5680 5683 5685 5688 5691
5648 5633 5619 5602 5586 5567 5544 5521 5502 5493 5487 5485 5487 5487 5486 5484 5484 5485 5493 5503 5520 5533 5548 5560 5568 5579 5588 5597 5607 5612 5619 5627 5633 5639 5645 5651 5654 5659 5664 5667 5670 5674 5677 5678 5680 5682 5685
5643 5628 5613 5596 5580 5560 5537 5515 5501 5495 5491 5489 5487 5486 5485 5483 5481 5484 5491 5499 5518 5534 5546 5553 5564 5576 5585 5594 5603 5610 5618 5625 5631 5636 5642 5647 5653 5657 5661 5664 5667 5670 5671 5673 5674 5676 5678
5638 5624 5608 5593 5575 5554 5531 5513 5505 5501 5495 5492 5488 5484 5482 5481 5481 5483 5491 5510 5518 5532 5543 5554 5564 5576 5583 5594 5601 5608 5617 5624 5629 5635 5641 5644 5650 5653 5658 5660 5663 5665 5666 5666 5668 5669 5672
5634 5620 5605 5589 5571 5550 5527 5514 5509 5503 5496 5491 5486 5482 5480 5480 5481 5485 5497 5513 5524 5534 5544 5553 5565 5574 5582 5591 5598 5606 5614 5620 5627 5632 5638 5642 5647 5650 5653 5656 5658 5660 5661 5661 5659 5660 5661
5631 5616 5602 5586 5568 5549 5529 5518 5510 5502 5494 5488 5481 5478 5480 5481 5484 5490 5507 5520 5530 5538 5547 5557 5564 5573 5581 5589 5599 5604 5612 5619 5625 5630 5635 5638 5643 5646 5649 5651 5653 5655 5654 5655 5654 5653 5649
5627 5614 5600 5585 5567 5549 5530 5518 5510 5502 5494 5489 5486 5484 5482 5483 5489 5498 5517 5528 5534 5543 5551 5559 5568 5574 5582 5590 5597 5604 5610 5617 5622 5627 5631 5636 5639 5642 5645 5646 5647 5646 5650 5650 5647 5644 5642
5625 5612 5599 5584 5568 5550 5532 5520 5512 5506 5500 5495 5492 5489 5488 5489 5499 5513 5524 5532 5540 5547 5556 5562 5568 5575 5582 5589 5597 5602 5608 5615 5620 5625 5629 5632 5636 5639 5641 5641 5642 5644 5644 5643 5640 5639 5634
5623 5612 5599 5585 5569 5552 5536 5524 5517 5511 5506 5501 5497 5496 5495 5501 5513 5523 5529 5536 5545 5552 5558 5565 5571 5576 5581 5587 5593 5600 5607 5612 5617 5622 5625 5629 5632 5635 5636 5636 5637 5639 5639 5636 5634 5634 5629
5621 5611 5599 5586 5572 5554 5539 5530 5521 5516 5509 5504 5499 5500 5504 5513 5523 5530 5535 5541 5548 5556 5562 5568 5573 5578 5582 5587 5593 5599 5605 5610 5615 5619 5623 5626 5630 5630 5631 5633 5634 5634 5633 5630 5627 5627 5628
5619 5609 5598 5586 5574 5558 5544 5536 5527 5518 5512 5508 5506 5509 5517 5526 5532 5539 5542 5549 5555 5561 5566 5570 5575 5579 5584 5588 5593 5598 5603 5608 5613 5617 5620 5623 5626 5626 5627 5628 5629 5630 5628 5626 5622 5620 5616
5617 5608 5599 5588 5576 5563 5550 5543 5534 5526 5520 5517 5520 5523 5530 5534 5538 5543 5549 5555 5561 5565 5569 5573 5576 5580 5584 5588 5592 5597 5602 5607 5611 5615 5618 5621 5622 5623 5623 5624 5624 5624 5625 5622 5619 5615 5609
5615 5606 5598 5587 5576 5566 5556 5551 5545 5537 5535 5531 5538 5539 5539 5542 5546 5549 5555 5558 5563 5568 5572 5575 5578 5582 5585 5589 5593 5597 5600 5604 5609 5612 5615 5617 5619 5620 5620 5621 5622 5622 5620 5618 5616 5614 5610
5612 5605 5597 5589 5578 5569 5562 5558 5554 5550 5550 5549 5546 5549 5550 5551 5554 5557 5560 5563 5568 5572 5574 5576 5579 5582 5585 5589 5592 5595 5598 5602 5607 5609 5612 5614 5615 5617 5617 5619 5618 5619 5617 5616 5615 5610 5604
5609 5602 5596 5589 5579 5571 5563 5560 5560 5558 5558 5556 5555 5556 5558 5559 5559 5562 5563 5567 5571 5574 5575 5576 5579 5582 5585 5587 5590 5593 5596 5600 5603 5606 5608 5610 5612 5614 5615 5615 5616 5616 5615 5614 5611 5606 5602
5606 5600 5593 5587 5579 5573 5566 5559 5561 5561 5562 5562 5560 5561 5562 5563 5564 5565 5567 5570 5573 5575 5575 5577 5578 5581 5583 5586 5589 5592 5595 5599 5601 5604 5606 5608 5611 5613 5614 5614 5615 5614 5613 5611 5607 5605 5601
5602 5597 5589 5583 5576 5570 5566 5559 5558 5560 5562 5563 5563 5561 5562 5564 5565 5567 5569 5572 5573 5574 5575 5576 5579 5581 5584 5586 5589 5591 5594 5597 5599 5602 5604 5607 5609 5611 5612 5613 5613 5613 5611 5608 5607 5604 5599
5597 5592 5585 5579 5573 5566 5563 5560 5554 5557 5558 5559 5560 5561 5562 5563 5565 5568 5571 5573 5573 5574 5575 5577 5579 5582 5584 5586 5588 5590 5592 5595 5597 5600 5603 5606 5608 5609 5611 5612 5613 5611 5610 5607 5606 5606 5600
5592 5587 5580 5575 5568 5562 5556 5554 5549 5551 5553 5556 5557 5559 5561 5562 5565 5567 5568 5571 5572 5574 5575 5578 5580 5582 5584 5585 5586 5587 5590 5593 5595 5598 5601 5605 5606 5609 5610 5610 5611 5609 5608 5606 5604 5602 5600
5586 5582 5574 5568 5563 5554 5549 5542 5541 5541 5546 5550 5553 5555 5557 5561 5564 5565 5568 5570 5572 5573 5575 5577 5579 5580 5582 5583 5584 5585 5587 5590 5593 5597 5600 5604 5606 5608 5609 5609 5608 5607 5606 5605 5603 5603 5601